Kapolei, HI

3:54 PM HST on July 27, 2016 (GMT -1000)
Kalaeloa (John Rodgers Field)

Weather History for PHJR - May, 2013

Change the Weather History Date:

Tuesday, May 28, 2013

  Actual Average (PHNL) Record (PHNL)
Temperature  
Mean Temperature 76 °F 79 °F  
Max Temperature 81 °F 86 °F 90 °F (2005)
Min Temperature 70 °F 72 °F 65 °F (1964)
Degree Days  
Heating Degree Days 0 0  
Month to date heating degree days 0  
Since 1 July heating degree days 0  
Cooling Degree Days 10 14  
Month to date cooling degree days 354  
Year to date cooling degree days 1461  
Growing Degree Days 26 (Base 50)    
Moisture  
Dew Point 67 °F    
Average Humidity 77    
Maximum Humidity 90    
Minimum Humidity 60    
Precipitation  
Precipitation 0.86 in 0.02 in 0.70 in (2010)
Month to date precipitation 0.58  
Year to date precipitation 7.53  
Snow  
Snow 0.00 in - - ()
Month to date snowfall  
Since 1 July snowfall  
Snow Depth -    
Sea Level Pressure  
Sea Level Pressure 30.09 in    
Wind  
Wind Speed 5 mph (ENE)    
Max Wind Speed 12 mph    
Max Gust Speed 20 mph    
Visibility 8 miles    
Events Rain    
T = Trace of Precipitation, MM = Missing Value Source: NWS Daily Summary

Daily Weather History Graph

Daily Weather History Graph

Search for Another Location

Airport or City:

Trip Planner

Search our weather history database for the weather conditions in past years. The results will help you decide how hot, cold, wet, or windy it might be!

Date:

Astronomy

May. 28, 2013 Rise Set
Actual Time 5:50 AM HST 7:09 PM HST
Civil Twilight 5:25 AM HST 7:33 PM HST
Nautical Twilight 4:56 AM HST 8:02 PM HST
Astronomical Twilight 4:26 AM HST 8:32 PM HST
Moon 10:57 PM HST 9:39 AM HST
Length of Visible Light 14h 07m
Length of Day
13h 18m
Waning Gibbous, 80% of the Moon is Illuminated
May 28
Waning Gibbous
May 31
Last Quarter
Jun 8
New
Jun 16
First Quarter
Jun 23
Full

Hourly Weather History & Observations

Time (HST) Temp. Heat Index Dew Point Humidity Pressure Visibility Wind Dir Wind Speed Gust Speed Precip Events Conditions
12:53 AM 72.0 °F - 64.9 °F 78% 30.11 in 10.0 mi Variable 4.6 mph - N/A   Overcast
1:53 AM 71.1 °F - 64.9 °F 81% 30.09 in 10.0 mi Variable 3.5 mph - N/A   Clear
2:53 AM 70.0 °F - 64.9 °F 84% 30.08 in 10.0 mi Calm Calm - N/A   Clear
3:36 AM 71.6 °F - 66.2 °F 83% 30.06 in 10.0 mi Variable 3.5 mph - N/A   Overcast
3:53 AM 71.1 °F - 66.9 °F 87% 30.08 in 10.0 mi Variable 4.6 mph - N/A   Overcast
4:53 AM 70.0 °F - 64.9 °F 84% 30.08 in 10.0 mi Calm Calm - N/A   Overcast
5:53 AM 70.0 °F - 64.9 °F 84% 30.09 in 10.0 mi NE 3.5 mph - N/A   Partly Cloudy
6:51 AM 71.6 °F - 64.4 °F 78% 30.08 in 10.0 mi Variable 3.5 mph - N/A   Scattered Clouds
6:53 AM 71.1 °F - 64.0 °F 78% 30.10 in 10.0 mi Variable 3.5 mph - N/A   Scattered Clouds
7:53 AM 73.9 °F - 63.0 °F 68% 30.11 in 10.0 mi Variable 4.6 mph - N/A   Scattered Clouds
8:53 AM 75.9 °F - 64.9 °F 69% 30.11 in 10.0 mi Variable 5.8 mph - N/A   Clear
9:53 AM 80.1 °F 81.9 °F 64.9 °F 60% 30.12 in 10.0 mi Variable 5.8 mph - N/A   Clear
10:53 AM 80.1 °F 82.7 °F 68.0 °F 67% 30.12 in 10.0 mi SE 9.2 mph - N/A   Scattered Clouds
11:53 AM 81.0 °F 83.8 °F 68.0 °F 65% 30.12 in 10.0 mi Variable 6.9 mph - N/A   Clear
12:53 PM 79.0 °F - 68.0 °F 69% 30.10 in 10.0 mi SE 11.5 mph - N/A   Mostly Cloudy
1:24 PM 80.6 °F 83.9 °F 69.8 °F 70% 30.08 in 10.0 mi ESE 10.4 mph 19.6 mph N/A   Partly Cloudy
1:53 PM 81.0 °F 84.1 °F 69.1 °F 67% 30.08 in 10.0 mi SE 11.5 mph - N/A   Partly Cloudy
2:53 PM 81.0 °F 84.1 °F 69.1 °F 67% 30.08 in 10.0 mi ESE 9.2 mph 17.3 mph N/A   Clear
3:53 PM 80.1 °F 83.2 °F 70.0 °F 71% 30.08 in 10.0 mi SE 10.4 mph - N/A   Mostly Cloudy
4:53 PM 77.0 °F - 70.0 °F 79% 30.07 in 10.0 mi ESE 8.1 mph - N/A   Mostly Cloudy
5:22 PM 75.2 °F - 68.0 °F 78% 30.06 in 2.5 mi Variable 5.8 mph - 0.11 in Rain Heavy Rain
5:25 PM 73.4 °F - 69.8 °F 88% 30.06 in 1.5 mi North 6.9 mph - 0.15 in Rain Heavy Rain
5:33 PM 73.4 °F - 69.8 °F 88% 30.06 in 3.0 mi Calm Calm - 0.15 in Rain Light Rain
5:53 PM 73.0 °F - 70.0 °F 90% 30.09 in 2.5 mi NNW 5.8 mph - 0.21 in Rain Heavy Rain
5:56 PM 73.4 °F - 69.8 °F 88% 30.07 in 3.0 mi North 6.9 mph - 0.02 in Rain Heavy Rain
6:06 PM 73.4 °F - 69.8 °F 88% 30.07 in 3.0 mi North 8.1 mph - 0.43 in Rain Heavy Rain
6:18 PM - - - N/A% 30.07 in 3.0 mi NNW 5.8 mph - 0.54 in Rain Heavy Rain
6:53 PM - - - N/A% 30.11 in 10.0 mi Calm Calm - 0.64 in   Mostly Cloudy
7:02 PM - - - N/A% 30.08 in 10.0 mi Calm Calm - 0.01 in   Mostly Cloudy
7:53 PM - - - N/A% 30.12 in 10.0 mi Variable 3.5 mph - 0.01 in   Scattered Clouds
8:53 PM - - - N/A% 30.12 in 10.0 mi Variable 3.5 mph - N/A   Scattered Clouds
9:53 PM - - - N/A% 30.14 in 10.0 mi Calm Calm - N/A   Clear
10:53 PM - - - N/A% 30.14 in 10.0 mi Variable 3.5 mph - N/A   Clear
11:53 PM - - - N/A% 30.12 in 10.0 mi Calm Calm - N/A   Clear